Regional Weather Roundup
Issued by NWS Albany, NY

Home | Current Version | Previous Version | Text Only | Print | Product List | Glossary On
Versions: 1 2 3 4 5 6 7 8 9 10 11 12 13 14 15 16 17 18 19 20 21 22 23 24 25 26 27
000
ASUS41 KALY 240310
RWRALY

NEW YORK STATE HOURLY WEATHER ROUNDUP
NATIONAL WEATHER SERVICE ALBANY NY
1100 PM EDT FRI JUN 23 2017

NOTE: "FAIR" INDICATES FEW OR NO CLOUDS BELOW 12,000 FEET WITH NO
SIGNIFICANT WEATHER AND/OR NO OBSTRUCTIONS TO VISIBILITY.

NYZ032-033-038>043-046>054-057>066-NYZ062>081-082-084-240400-
EAST


CITY           SKY/WX    TMP DP  RH WIND       PRES   REMARKS
ALBANY         CLOUDY    78  69  73 S9        29.56F
GLENS FALLS    CLOUDY    73  70  90 S6        29.55F
POUGHKEEPSIE   CLOUDY    78  72  81 SW6       29.60F
NEWBURGH       MOCLDY    75  73  94 SW8G17    29.64F
MONTGOMERY     MOCLDY    74  72  93 SW6       29.62F
ISLIP          CLOUDY    74  71  91 SW14      29.65F
NEW YORK CITY  CLOUDY    82  75  79 SW12      29.62F
CENTRAL PARK   CLOUDY    77  74  90 VRB5      29.66F
$$

NYZ005>009-017-018-044>046-055-056-240400-
CENTRAL


CITY           SKY/WX    TMP DP  RH WIND       PRES   REMARKS
FULTON         CLOUDY    71  69  93 W8        29.57R
SYRACUSE       LGT RAIN  72  71  97 SW13      29.55R
ROME           MOCLDY    75  70  84 SW5       29.55S
ELMIRA         NOT AVBL
BINGHAMTON     NOT AVBL
MONTICELLO     CLOUDY    72  72 100 SW7       29.67F
$$

NYZ026>034-041>043-087-240400-
NORTH


CITY           SKY/WX    TMP DP  RH WIND       PRES   REMARKS
WATERTOWN      CLOUDY    70  70 100 W7        29.53S FOG
FORT DRUM      NOT AVBL
OGDENSBURG     FAIR      69  68  96 SW3       29.50F
MASSENA        CLOUDY    71  70  96 SW7       29.50S
SARANAC LAKE   CLOUDY    67  67 100 SW5       29.55F
PLATTSBURGH    CLOUDY    71  69  93 CALM      29.49F
$$

NYZ001>004-010>016-019>021-085-240400-
WEST


CITY           SKY/WX    TMP DP  RH WIND       PRES   REMARKS
NIAGARA FALLS  CLOUDY    71  68  90 SW6       29.60R FOG
BUFFALO        LGT RAIN  69  67  93 SW9       29.60F FOG
DUNKIRK        CLOUDY    70  69  97 W9        29.62S
JAMESTOWN      CLOUDY    66  63  88 W6        29.68S
WELLSVILLE     LGT RAIN  69  65  86 W6        29.70S FOG
ROCHESTER      CLOUDY    72  70  93 SW8       29.59R
PENN YAN       CLOUDY    74  65  73 W10G20    29.62R
$$

             KEY
       WCI = WIND CHILL INDEX
       VSB = VISIBILITY
       HX  = HEAT INDEX
$$




USA.gov is the U.S. government's official web portal to all federal, state and local government web resources and services.